Find Starlink 4613

NORAD ID: 53739 Int'l Des: 2022-107 Owner: SPXS Country: US Constellation: starlink decayed
LEOCIRCULAR

Historical Track — Oct 17, 2022

正在加载3D地球...

About Starlink 4613

Starlink 4613 (NORAD 53739) is a starlink constellation satellite (v1.5) launched Sep 5, 2022 by SPXS of US. It operates in LEO, CIRCULAR orbit with a mass of 305.00 kg.

关于 Starlink 4613

正在加载描述...

高度历史

Loading altitude history...

两行轨道根数

1 53739U 22107AR 22290.55048662 .49024869 12902-4 19962-3 0 9990
2 53739 53.1929 55.7457 0005817 11.0210 74.9926 16.56711661 6808
Epoch: Oct 17, 2022 • Age: 31950 hours

当前状态

Position data unavailable
发射日期 Sep 5, 2022
运行时间 3.7 years
衰减日期 Oct 17, 2022
类型 internet

技术详情

分类 Payload
质量 305.00 kg
干质量 290.00 kg
总质量 305.00 kg
长度 0.20 m
直径 2.80 m
跨度 9.00 m
形状 Box + pan
制造商 SPXS
平台类型 Starlink
阶段状态 Unknown Transfer Status
所有者/国家 SPXS/US

Most Searched